User: anonymous   Login
Location: Owatonna
(44.0840°N, 93.2260°W)
Time: 18:25:56
(UTC-06:00)
Language:

Cosmos 1500 Rocket - Orbit

View from above orbital plane
View from above orbital plane
View from above satellite
View from above satellite

Ground track
Ground track

The orbit data is extracted from the following two-line orbital elements,

1 14373U 83099B   15057.23695772  .00000381  00000-0  43338-4 0  9993
2 14373 082.5422 311.2327 0021854 123.2291 354.4643 14.83358693696046
Epoch (UTC): 26 February 2015 05:41:13
Eccentricity: 0.0021854
inclination: 82.5422°
perigee height: 603 km
apogee height: 634 km
right ascension of ascending node: 311.2327°
argument of perigee: 123.2291°
revolutions per day: 14.83358693
mean anomaly at epoch: 354.4643°
orbit number at epoch: 69604

The dashed part of the orbit path shows where the satellite is in the earth's shadow,  

DLR